Terminal Aerodrome Forecast
Issued by NWS Portland, OR

Home | Current Version | Previous Version | Text Only | Print | Product List | Glossary On
Versions: 1 2 3 4 5 6 7 8 9 10 11 12 13 14 15 16 17 18 19 20 21 22 23 24 25 26 27 28 29 30 31 32 33 34 35 36 37 38 39 40 41 42 43 44 45
000
FTUS46 KPQR 291136
TAFPDX
TAF
KPDX 291136Z 2912/3012 20011KT P6SM -TSRA SCT040CB BKN060
     FM291300 20014KT P6SM -RA SCT035 OVC060
     FM291600 20017G32KT P6SM -SHRA SCT035 BKN060
     FM292200 21013G24KT P6SM -SHRA SCT035 BKN060
     FM300400 20010KT P6SM -RA BKN035 OVC050=

USA.gov is the U.S. government's official web portal to all federal, state and local government web resources and services.